TIME,DELAY(SENSOR),PRES,OXYGEN,RAWTEMP,T(OPTODE),TCPHASE,FLUOR,BETA(BETA700),BETA(BETA412),BETA(BETA440),CDOM,C(CSC),ED(ED412.20),ED(ED444.00),ED(ED489.60),ED(ED554.30),LU(LU412.10),LU(LU443.90),LU(LU489.70),LU(LU554.70),COMP,TILTX,TILTY,CHECK
1338001958,5809,907.5200195312500000,34.0053405761718750,567.5889282226562000,4.2504620552062990,56.5158996582031250,55,100,102,79,83,15514,0,0,0,0,2147124662,2147775460,2147575396,2147571254,3116,2,13,7728
1338005554,5810,979.5999755859375000,39.3368797302246100,572.9362182617188000,4.0842800140380860,55.7492103576660160,55,102,101,77,83,15512,0,0,0,0,2147122971,2147777974,2147577142,2147571072,518,2,13,58271
1338009154,5808,986.2999877929688000,40.5921096801757800,574.4915771484375000,4.0358958244323730,55.5770797729492200,55,99,102,78,84,15509,0,0,0,0,2147122633,2147773613,2147577837,2147569152,3277,2,13,32287
1338012754,5810,995.8599853515625000,41.3441886901855500,576.4749145507812000,3.9741730690002440,55.4903602600097660,56,96,102,77,84,15510,0,0,0,0,2147123492,2147774610,2147576914,2147572434,3026,2,13,9901
1338016354,5808,1001.5999755859375000,41.2065391540527340,576.4050903320312000,3.9763429164886475,55.5078392028808600,55,97,101,79,83,15512,0,0,0,0,2147123382,2147776484,2147573220,2147569910,447,2,13,56284
1338019954,5807,1006.1199951171875000,40.9672584533691400,576.0390014648438000,3.9877409934997560,55.5351982116699200,55,98,102,77,84,15507,0,0,0,0,2147121700,2147772233,2147575104,2147569938,546,2,13,10684
1338023554,5810,1000.3400268554688000,40.9132118225097660,577.0214843750000000,3.9571530818939210,55.5531196594238300,55,100,101,78,84,15506,0,0,0,0,2147124397,2147774244,2147575314,2147569901,162,2,13,25002
1338027154,5812,1003.9000244140625000,41.1079711914062500,576.9487304687500000,3.9594209194183350,55.5239181518554700,56,98,101,80,83,15509,0,0,0,0,2147124470,2147773732,2147579648,2147568100,105,2,13,11047
1338030754,5810,1001.0100097656250000,40.8387107849121100,576.9194946289062000,3.9603290557861330,55.5617408752441400,55,98,101,78,83,15508,0,0,0,0,2147125449,2147773385,2147575561,2147573211,751,2,13,48780
1338034354,5812,1007.6400146484375000,41.7196807861328100,577.4782104492188000,3.9429318904876710,55.4427909851074200,55,97,100,80,84,15508,0,0,0,0,2147123629,2147775899,2147576182,2147569462,207,2,13,23961
1338037954,5812,1007.6699829101562000,40.8383789062500000,577.4771118164062000,3.9429659843444824,55.5732688903808600,55,99,102,78,82,15510,0,0,0,0,2147127625,2147770925,2147574509,2147568457,41,2,13,55458
1338041554,5808,1004.3599853515625000,40.6944198608398440,577.8753051757812000,3.9305670261383057,55.5995292663574200,55,97,101,79,84,15510,0,0,0,0,2147123227,2147775451,2147571986,2147574153,258,2,13,8730
1338045154,5809,1012.3300170898438000,41.5168418884277340,577.6414184570312000,3.9378530979156494,55.4727210998535160,55,98,101,78,85,15507,0,0,0,0,2147125632,2147775277,2147577234,2147573312,679,2,13,33158
1338048754,5811,1013.8900146484375000,41.1189994812011700,576.7122802734375000,3.9667799472808840,55.5196800231933600,55,99,100,79,84,15508,0,0,0,0,2147124379,2147774098,2147576201,2147573430,3415,2,13,40355
1338052354,5810,1007.1400146484375000,40.2622795104980500,576.6450195312500000,3.9688758850097656,55.6462211608886700,55,98,103,77,86,15508,0,0,0,0,2147125549,2147771757,2147577316,2147571501,2880,2,13,54210
1338055954,5808,1009.0900268554688000,40.2368392944335940,577.3692016601562000,3.9463269710540770,55.6609992980957000,55,99,101,77,84,15505,0,0,0,0,2147123702,2147771675,2147578075,2147571474,120,2,13,12525
1338059554,5810,1015.2299804687500000,41.2059898376464840,576.7830200195312000,3.9645810127258300,55.5114593505859400,55,98,101,79,84,15507,0,0,0,0,2147125577,2147777417,2147571657,2147571849,3378,2,13,18677
1338063154,5812,1014.9199829101562000,41.1536712646484400,577.1655273437500000,3.9526689052581787,55.5240898132324200,55,97,101,78,84,15502,0,0,0,0,2147121536,2147775680,2147573458,2147571273,2924,2,13,26738
1338066754,5807,1012.5399780273438000,41.6471710205078100,577.6972045898438000,3.9361131191253660,55.4571495056152340,55,98,101,79,84,15502,0,0,0,0,2147125110,2147782902,2147576402,2147570084,3527,2,13,4232
1338070354,5808,1006.2800292968750000,41.7932205200195300,578.2645874023438000,3.9184401035308840,55.4371414184570300,55,99,101,79,83,15501,0,0,0,0,2147123858,2147778678,2147574336,2147568795,314,2,13,37809
1338073954,5809,1005.6300048828125000,42.3087997436523440,579.2030029296875000,3.8892099857330322,55.3757209777832000,55,99,101,79,84,15502,0,0,0,0,2147124580,2147773430,2147574372,2147572022,143,2,13,41949
1338077554,5809,1007.2999877929688000,42.7025184631347660,579.7482299804688000,3.8722229003906250,55.3224487304687500,54,100,103,78,84,15502,0,0,0,0,2147128329,2147778998,2147572233,2147571812,277,2,13,15517
1338081154,5807,1008.0800170898438000,41.9874496459960940,578.9733886718750000,3.8963639736175537,55.4203300476074200,55,99,102,77,83,15503,0,0,0,0,2147126656,2147779254,2147575661,2147569664,264,2,13,64726
1338084754,5812,1010.7600097656250000,42.7771492004394500,578.7216796875000000,3.9042050838470460,55.3011703491210940,55,102,101,78,84,15504,0,0,0,0,2147125686,2147782674,2147576832,2147572370,3252,2,13,34355
1338088354,5809,1010.5700073242188000,42.5349082946777340,578.8604125976562000,3.8998849391937256,55.3412590026855500,55,97,102,78,84,15504,0,0,0,0,2147125558,2147771328,2147577417,2147572022,243,2,13,26526
1338091954,5812,1012.2399902343750000,41.5040283203125000,578.2136230468750000,3.9200329780578613,55.4785614013671900,55,98,101,78,84,15501,0,0,0,0,2147124269,2147774345,2147574299,2147570806,139,2,13,22292
1338095554,5808,1018.8599853515625000,42.2299385070800800,577.8259887695312000,3.9321000576019287,55.3703498840332000,55,98,100,77,84,15499,0,0,0,0,2147122706,2147776448,2147574070,2147572297,283,2,13,23752
1338099154,5810,1019.2700195312500000,41.5591201782226560,577.1829223632812000,3.9521269798278810,55.4638404846191400,55,100,101,78,83,15500,0,0,0,0,2147125961,2147774290,2147573933,2147570523,106,2,13,36265
1338102754,5811,1020.5599975585938000,41.7727813720703100,577.5424194335938000,3.9409329891204834,55.4377708435058600,54,99,102,79,83,15499,0,0,0,0,2147124809,2147774244,2147576502,2147571108,3532,2,13,4341
1338106354,5810,1014.6099853515625000,40.7546005249023440,577.5582275390625000,3.9404430389404297,55.5830497741699200,54,97,102,79,83,15499,0,0,0,0,2147126390,2147774921,2147572598,2147573385,3558,2,13,31097
1338109954,5811,1015.9299926757812000,41.3085594177246100,577.7739257812500000,3.9337229728698730,55.5061988830566400,56,99,101,78,84,15498,0,0,0,0,2147121645,2147775798,2147572772,2147570614,3517,2,13,4412
1338113554,5811,1019.0399780273438000,41.2482490539550800,577.7006225585938000,3.9360079765319824,55.5113906860351560,55,99,101,78,84,15499,0,0,0,0,2147126976,2147775926,2147570313,2147572233,46,2,13,45085
1338117154,5808,1021.1400146484375000,41.6493186950683600,577.4697265625000000,3.9431970119476320,55.4496498107910160,55,98,101,78,85,15494,0,0,0,0,2147124315,2147776173,2147572150,2147569865,3301,2,13,53861
1338120754,5812,1019.3499755859375000,41.9073295593261700,578.0137939453125000,3.9262540340423584,55.4179306030273440,56,99,102,78,85,15496,0,0,0,0,2147122889,2147778532,2147578998,2147569462,127,2,13,16225
1338124354,5811,1012.8699951171875000,41.7618217468261700,578.1823730468750000,3.9210009574890137,55.4411582946777340,56,99,102,79,84,15498,0,0,0,0,2147125110,2147774272,2147572918,2147568182,326,2,13,20792
1338127954,5812,1019.1300048828125000,41.4491615295410160,577.3784179687500000,3.9460411071777344,55.4846992492675800,56,100,100,79,84,15494,0,0,0,0,2147124534,2147776219,2147578166,2147570962,103,2,13,52684
1338131554,5807,1016.4099731445312000,41.7082901000976560,578.2188720703125000,3.9198648929595947,55.4530181884765600,55,99,101,77,85,15500,0,0,0,0,2147125101,2147775817,2147578651,2147572790,169,2,13,28548
1338135154,5810,1018.2700195312500000,41.8631401062011700,577.8007812500000000,3.9328858852386475,55.4258384704589840,55,98,103,78,84,15452,0,0,0,0,2147126784,2147776384,2147578112,2147571785,3346,2,13,44828
1338138754,5810,1024.1199951171875000,41.2953414916992200,577.2194824218750000,3.9509871006011963,55.5000305175781250,55,97,102,77,83,15496,0,0,0,0,2147123803,2147776274,2147576448,2147570779,3417,2,13,60924
1338142354,5808,1014.2399902343750000,40.5730781555175800,578.1287841796875000,3.9226698875427246,55.6161117553710940,55,100,102,78,83,15497,0,0,0,0,2147124809,2147774326,2147577298,2147571565,472,2,13,50496
1338145954,5810,1012.5399780273438000,42.0581016540527340,579.1964111328125000,3.8894159793853760,55.4142608642578100,54,98,100,79,84,15497,0,0,0,0,2147125677,2147772854,2147575835,2147570980,257,2,13,18149
1338146757,5807,1013.5999755859375000,42.5437812805175800,579.1973266601562000,3.8893868923187256,55.3423995971679700,55,98,101,77,84,15494,0,0,0,0,2147123556,2147777398,2147577700,2147570971,367,2,13,8637
